User: anonymous
Location: Sandbanks Provincial Park
(47.6073°N, 57.6428°W)
Time: 11:59:05
(UTC-02:-30)
Language:

Cosmos 2034 Rocket - Orbit

View from above orbital plane
View from above orbital plane
View from above satellite
View from above satellite

Ground track
Ground track

The orbit data is extracted from the following two-line orbital elements,

1 20150U 89059B   14275.10074231 -.00000025  00000-0 -41886-4 0   515
2 20150 082.9362 107.8485 0029738 162.4611 332.0854 13.75583458264403
Epoch (UTC): 02 October 2014 02:25:04
Eccentricity: 0.0029738
inclination: 82.9362°
perigee height: 958 km
apogee height: 1001 km
right ascension of ascending node: 107.8485°
argument of perigee: 162.4611°
revolutions per day: 13.75583458
mean anomaly at epoch: 332.0854°
orbit number at epoch: 26440

The dashed part of the orbit path shows where the satellite is in the earth's shadow,  

DLR